period_start,C,m1,H,J0,J1,J2,J3,J4,J5,JA,JB,JC,JD,JJ,JK,JN,#
2017-07-12 00:01:05,0.08,7.84,0.60,30.17,34.19,36.50,13.45,50.97,999.98,1998.48,1429.52,1695.72,1846.34,599.83,572.27,23.97,0000 0000 0000 0000 000000
2017-07-12 00:06:07,0.01,7.85,0.00,30.18,34.20,36.51,13.45,51.02,1000.07,1998.08,1429.01,1695.04,1845.96,600.03,572.46,24.02,0000 0000 0000 0000 000000
2017-07-12 00:11:08,0.07,7.85,0.00,30.20,34.20,36.52,13.45,51.16,1000.25,1998.06,1428.58,1694.96,1845.44,600.14,572.70,24.07,0000 0000 0000 0000 000000
2017-07-12 00:16:10,0.06,7.85,0.00,30.20,34.20,36.53,13.38,50.92,1000.49,1998.04,1428.04,1694.60,1845.02,599.68,572.42,24.12,0000 0000 0000 0000 000000
2017-07-12 00:21:11,0.02,7.85,0.00,30.20,34.21,36.54,13.45,51.05,1000.50,1998.01,1427.99,1694.06,1844.98,600.00,572.62,24.17,0000 0000 0000 0000 000000
2017-07-12 00:26:12,0.03,7.85,0.00,30.20,34.22,36.55,13.47,50.96,1000.63,1998.00,1427.87,1694.00,1844.64,599.87,572.78,24.22,0000 0000 0000 0000 000000
2017-07-12 00:31:13,0.06,7.86,0.00,30.20,34.22,36.56,13.41,50.95,1000.95,1998.00,1427.21,1693.99,1844.07,599.87,572.66,24.27,0000 0000 0000 0000 000000
2017-07-12 00:36:14,0.04,7.86,0.00,30.20,34.22,36.56,13.46,50.92,1000.99,1998.00,1427.01,1693.61,1844.00,600.25,573.07,24.33,0000 0000 0000 0000 000000
2017-07-12 00:41:16,0.02,7.86,0.00,30.20,34.22,36.56,13.35,50.85,1000.99,1998.00,1427.00,1693.05,1843.95,599.60,572.58,24.38,0000 0000 0000 0000 000000
2017-07-12 00:46:17,0.02,7.86,0.00,30.20,34.23,36.58,13.47,51.00,1000.99,1997.99,1426.98,1693.00,1843.60,600.21,573.15,24.43,0000 0000 0000 0000 000000
2017-07-12 00:51:18,0.01,7.86,0.00,30.20,34.23,36.59,13.45,50.83,1001.00,1997.98,1426.93,1692.98,1843.06,599.99,572.93,24.48,0000 0000 0000 0000 000000
2017-07-12 00:56:20,0.02,7.86,0.00,30.18,34.24,36.59,13.42,50.82,1001.06,1997.96,1426.72,1692.95,1843.00,599.59,572.60,24.53,0000 0000 0000 0000 000000
2017-07-12 01:01:21,0.01,7.87,0.00,30.17,34.24,36.60,13.47,51.07,1001.28,1997.96,1426.59,1692.81,1843.00,599.92,573.04,24.58,0000 0000 0000 0000 000000
2017-07-12 01:06:22,-0.00,7.87,0.00,30.15,34.25,36.60,13.46,50.92,1001.44,1997.90,1426.82,1692.44,1843.00,600.01,573.24,24.63,0000 0000 0000 0000 000000
2017-07-12 01:11:24,-0.00,7.87,0.00,30.14,34.25,36.60,13.49,50.92,1001.48,1997.81,1426.95,1692.21,1842.98,600.00,573.46,24.68,0000 0000 0000 0000 000000
2017-07-12 01:16:25,-0.00,7.87,0.00,30.13,34.25,36.61,13.47,51.26,1001.54,1997.76,1426.94,1692.16,1842.96,599.97,573.33,24.73,0000 0000 0000 0000 000000
2017-07-12 01:21:26,-0.03,7.87,0.00,30.12,34.25,36.61,13.51,51.11,1001.93,1997.56,1426.97,1692.08,1842.88,600.03,573.85,24.78,0000 0000 0000 0000 000000
2017-07-12 01:26:27,-0.02,7.86,0.00,30.10,34.25,36.60,13.43,50.96,1002.02,1997.29,1426.98,1692.01,1842.72,599.57,573.24,24.83,0000 0000 0000 0000 000000
2017-07-12 01:31:29,-0.02,7.86,0.00,30.09,34.24,36.61,13.40,50.92,1002.25,1997.12,1426.99,1692.01,1842.45,599.74,573.49,24.88,0000 0000 0000 0000 000000
2017-07-12 01:36:30,0.00,7.86,0.00,30.07,34.23,36.60,13.56,50.94,1002.46,1997.03,1426.99,1692.00,1842.20,600.47,574.49,24.93,0000 0000 0000 0000 000000
2017-07-12 01:41:31,-0.00,7.86,0.00,30.06,34.22,36.60,13.50,51.05,1002.46,1997.01,1427.00,1692.00,1842.14,600.32,574.34,24.98,0000 0000 0000 0000 000000
2017-07-12 01:46:33,-0.01,7.86,0.00,30.05,34.22,36.59,13.57,51.21,1002.49,1997.00,1427.03,1692.01,1842.17,600.19,574.35,25.03,0000 0000 0000 0000 000000
2017-07-12 01:51:34,0.00,7.86,0.00,30.02,34.22,36.60,13.50,51.13,1002.48,1997.00,1427.05,1692.01,1842.14,599.97,574.12,25.08,0000 0000 0000 0000 000000
2017-07-12 01:56:35,-0.00,7.86,0.00,30.00,34.20,36.59,13.54,51.21,1002.49,1997.00,1427.08,1692.00,1842.10,600.14,574.30,25.13,0000 0000 0000 0000 000000
2017-07-12 02:01:37,-0.03,7.86,0.00,29.97,34.20,36.60,13.50,51.10,1002.92,1997.00,1427.32,1692.01,1842.20,600.10,574.60,25.18,0000 0000 0000 0000 000000
2017-07-12 02:06:37,-0.01,7.86,0.00,29.96,34.20,36.59,13.57,51.02,1003.13,1997.00,1427.60,1692.02,1842.25,600.35,574.98,25.23,0000 0000 0000 0000 000000
2017-07-12 02:11:39,0.00,7.86,0.00,29.92,34.18,36.58,13.49,50.91,1003.43,1997.01,1427.67,1692.03,1842.30,600.08,574.99,25.28,0000 0000 0000 0000 000000
2017-07-12 02:16:40,-0.01,7.86,0.00,29.90,34.17,36.57,13.47,51.01,1003.43,1997.01,1427.75,1692.05,1842.36,599.59,574.60,25.33,0000 0000 0000 0000 000000
2017-07-12 02:21:41,-0.03,7.86,0.00,29.87,34.15,36.56,13.48,51.02,1003.47,1997.01,1427.87,1692.06,1842.58,600.11,575.09,25.38,0000 0000 0000 0000 000000
2017-07-12 02:26:42,0.01,7.86,0.00,29.85,34.14,36.56,13.59,51.07,1003.49,1997.00,1427.90,1692.06,1842.46,600.30,575.30,25.43,0000 0000 0000 0000 000000
2017-07-12 02:31:44,-0.02,7.86,0.00,29.81,34.12,36.53,13.50,50.92,1003.66,1997.03,1427.95,1692.15,1842.63,599.80,574.99,25.48,0000 0000 0000 0000 000000
2017-07-12 02:36:45,-0.00,7.86,0.00,29.78,34.11,36.53,13.58,51.18,1003.91,1997.04,1427.98,1692.15,1842.69,599.93,575.46,25.53,0000 0000 0000 0000 000000
2017-07-12 02:41:47,-0.01,7.86,0.00,29.74,34.10,36.51,13.51,51.07,1003.92,1997.04,1427.98,1692.28,1842.86,599.83,575.32,25.58,0000 0000 0000 0000 000000
2017-07-12 02:46:48,-0.01,7.86,0.00,29.70,34.07,36.50,13.60,51.17,1003.92,1997.05,1427.99,1692.40,1842.92,600.27,575.80,25.63,0000 0000 0000 0000 000000
2017-07-12 02:51:50,0.01,7.86,0.00,29.66,34.06,36.48,13.51,51.07,1003.93,1997.17,1427.99,1692.53,1842.93,600.02,575.69,25.68,0000 0000 0000 0000 000000
2017-07-12 02:56:51,0.02,7.86,0.00,29.62,34.04,36.48,13.51,50.90,1004.04,1997.41,1427.99,1692.71,1842.96,599.86,575.65,25.73,0000 0000 0000 0000 000000
2017-07-12 03:01:52,0.04,7.86,0.00,29.58,34.01,36.46,13.54,51.07,1004.18,1997.76,1427.99,1692.86,1842.99,599.98,575.87,25.78,0000 0000 0000 0000 000000
2017-07-12 03:06:53,0.01,7.86,0.00,29.53,33.99,36.45,13.58,51.13,1004.37,1997.86,1428.00,1692.91,1842.99,600.41,576.46,25.83,0000 0000 0000 0000 000000
2017-07-12 03:11:55,0.00,7.86,0.00,29.50,33.97,36.45,13.53,51.12,1004.36,1997.95,1428.00,1692.98,1842.99,600.07,576.22,25.88,0000 0000 0000 0000 000000
2017-07-12 03:16:56,0.00,7.86,0.00,29.45,33.94,36.45,13.56,51.10,1004.41,1997.98,1428.00,1692.98,1842.99,600.00,576.26,25.93,0000 0000 0000 0000 000000
2017-07-12 03:21:57,-0.00,7.86,0.00,29.40,33.92,36.43,13.58,51.15,1004.45,1997.99,1428.03,1692.99,1842.99,599.89,576.46,25.98,0000 0000 0000 0000 000000
2017-07-12 03:26:58,0.00,7.86,0.00,29.36,33.89,36.41,13.56,51.18,1004.53,1997.99,1428.05,1692.99,1843.00,600.19,576.63,26.03,0000 0000 0000 0000 000000
2017-07-12 03:32:00,-0.00,7.86,0.00,29.31,33.86,36.43,13.59,51.37,1004.47,1997.99,1428.10,1692.99,1843.02,600.08,576.68,26.08,0000 0000 0000 0000 000000
2017-07-12 03:37:01,-0.01,7.86,0.00,29.26,33.83,36.40,13.53,51.19,1004.69,1997.99,1428.19,1692.99,1843.03,600.10,576.95,26.13,0000 0000 0000 0000 000000
2017-07-12 03:42:02,-0.01,7.86,0.00,29.20,33.80,36.40,13.60,51.19,1004.89,1998.04,1428.36,1693.00,1843.23,600.48,577.60,26.18,0000 0000 0000 0000 000000
2017-07-12 03:47:04,0.00,7.86,0.00,29.15,33.77,36.42,13.61,51.21,1004.90,1998.27,1428.58,1693.04,1843.63,600.12,577.39,26.23,0000 0000 0000 0000 000000
2017-07-12 03:52:05,0.04,7.86,0.00,29.10,33.74,36.38,13.63,51.30,1004.90,1998.73,1428.86,1693.20,1843.88,600.33,577.61,26.28,0000 0000 0000 0000 000000
2017-07-12 03:57:06,-0.02,7.86,0.00,29.04,33.70,36.34,13.55,51.24,1004.90,1998.95,1428.94,1693.64,1843.99,599.73,577.22,26.33,0000 0000 0000 0000 000000
2017-07-12 04:02:07,0.00,7.86,0.00,28.99,33.66,36.32,13.61,51.41,1004.76,1998.99,1428.92,1693.79,1843.99,600.13,577.47,26.38,0000 0000 0000 0000 000000
2017-07-12 04:07:09,0.01,7.86,0.00,28.94,33.63,36.29,13.62,51.47,1004.89,1998.99,1428.92,1693.66,1843.98,600.12,577.78,26.43,0000 0000 0000 0000 000000
2017-07-12 04:12:10,-0.02,7.86,0.00,28.87,33.59,36.23,13.65,51.39,1004.94,1999.00,1428.96,1693.92,1843.99,600.39,578.08,26.48,0000 0000 0000 0000 000000
2017-07-12 04:17:11,0.03,7.86,0.00,28.82,33.55,36.19,13.65,51.41,1005.03,1999.25,1428.99,1693.99,1843.99,600.13,578.01,26.53,0000 0000 0000 0000 000000
2017-07-12 04:22:12,0.06,7.86,0.00,28.76,33.51,36.16,13.71,51.31,1005.33,1999.70,1428.99,1693.99,1844.01,600.18,578.30,26.58,0000 0000 0000 0000 000000
2017-07-12 04:27:14,0.02,7.87,0.00,28.71,33.47,36.12,13.62,51.33,1005.26,1999.93,1428.99,1693.99,1844.13,600.12,578.39,26.63,0000 0000 0000 0000 000000
2017-07-12 04:32:15,-0.02,7.87,0.00,28.66,33.43,36.06,13.65,51.27,1005.39,1999.99,1428.99,1694.01,1844.62,600.05,578.43,26.68,0000 0000 0000 0000 000000
2017-07-12 04:37:16,-0.02,7.86,0.00,28.60,33.39,36.01,13.61,51.32,1005.38,2000.00,1428.99,1694.19,1844.94,600.22,578.78,26.73,0000 0000 0000 0000 000000
2017-07-12 04:42:18,-0.02,7.86,0.00,28.54,33.34,35.97,13.65,51.42,1005.40,2000.06,1429.01,1694.63,1844.99,600.06,578.62,26.78,0000 0000 0000 0000 000000
2017-07-12 04:47:19,0.04,7.86,0.00,28.49,33.30,35.93,13.58,51.30,1005.85,2000.44,1429.00,1694.93,1844.99,599.89,578.91,26.83,0000 0000 0000 0000 000000
2017-07-12 04:52:20,0.05,7.87,0.00,28.44,33.25,35.88,13.62,51.19,1006.18,2000.86,1429.05,1694.99,1845.00,599.88,579.13,26.88,0000 0000 0000 0000 000000
2017-07-12 04:57:21,-0.01,7.87,0.00,28.39,33.21,35.83,13.61,51.20,1006.36,2000.98,1429.18,1694.99,1845.12,599.76,579.25,26.93,0000 0000 0000 0000 000000
2017-07-12 05:02:22,-0.03,7.87,0.00,28.34,33.16,35.78,13.69,51.08,1006.43,2000.99,1429.39,1695.01,1845.61,600.19,579.73,26.98,0000 0000 0000 0000 000000
2017-07-12 05:07:23,-0.02,7.86,0.00,28.29,33.12,35.73,13.70,51.05,1006.88,2001.11,1429.70,1695.10,1845.95,600.32,580.26,27.03,0000 0000 0000 0000 000000
2017-07-12 05:12:25,0.02,7.86,0.00,28.25,33.07,35.69,13.69,51.12,1007.32,2001.42,1429.79,1695.37,1845.98,599.69,580.05,27.08,0000 0000 0000 0000 000000
2017-07-12 05:17:26,0.01,7.87,0.00,28.21,33.02,35.64,13.65,51.10,1007.37,2001.90,1429.94,1695.90,1845.99,599.80,580.14,27.13,0000 0000 0000 0000 000000
2017-07-12 05:22:27,0.00,7.87,0.00,28.16,32.98,35.59,13.70,50.96,1007.54,2001.99,1429.99,1695.99,1846.00,600.32,580.93,27.18,0000 0000 0000 0000 000000
2017-07-12 05:27:29,-0.00,7.87,0.00,28.13,32.94,35.55,13.72,51.08,1007.70,2002.00,1429.99,1695.99,1846.17,600.07,580.69,27.23,0000 0000 0000 0000 000000
2017-07-12 05:32:30,-0.01,7.87,0.00,28.11,32.89,35.52,13.66,51.03,1007.82,2002.06,1429.99,1695.99,1846.63,600.13,581.00,27.28,0000 0000 0000 0000 000000
2017-07-12 05:37:31,0.08,7.87,0.00,28.08,32.85,35.47,13.62,51.15,1007.83,2002.57,1430.00,1696.06,1846.93,599.71,580.64,27.33,0000 0000 0000 0000 000000
2017-07-12 05:42:33,0.01,7.87,0.00,28.05,32.81,35.43,13.66,51.06,1007.83,2002.96,1430.03,1696.25,1846.99,599.92,580.84,27.38,0000 0000 0000 0000 000000
2017-07-12 05:47:34,-0.03,7.87,0.00,28.01,32.76,35.40,13.71,51.12,1007.83,2002.99,1430.05,1696.75,1846.99,600.05,580.95,27.43,0000 0000 0000 0000 000000
2017-07-12 05:52:35,-0.02,7.87,0.00,27.97,32.72,35.36,13.66,51.30,1007.83,2003.00,1430.22,1696.96,1847.04,599.88,580.92,27.48,0000 0000 0000 0000 000000
2017-07-12 05:57:36,-0.04,7.87,0.00,27.95,32.67,35.28,13.77,51.33,1007.83,2003.13,1430.78,1696.99,1847.40,600.23,581.49,27.53,0000 0000 0000 0000 000000
2017-07-12 06:02:37,0.05,7.87,0.00,27.91,32.63,35.25,13.68,51.26,1007.83,2003.58,1430.93,1696.99,1847.79,599.79,581.00,27.58,0000 0000 0000 0000 000000
2017-07-12 06:07:38,0.03,7.87,0.00,27.87,32.59,35.21,13.67,51.19,1007.83,2003.89,1430.96,1697.00,1847.96,599.97,581.31,27.63,0000 0000 0000 0000 000000
2017-07-12 06:12:40,-0.01,7.87,0.00,27.83,32.55,35.20,13.69,51.21,1007.83,2003.99,1430.99,1697.09,1847.99,599.90,581.26,27.68,0000 0000 0000 0000 000000
2017-07-12 06:17:41,-0.02,7.87,0.00,27.79,32.51,35.16,13.71,51.43,1007.83,2003.99,1430.99,1697.51,1847.99,599.82,581.31,27.73,0000 0000 0000 0000 000000
2017-07-12 06:22:42,-0.02,7.87,0.00,27.74,32.46,35.09,13.66,51.42,1007.83,2004.00,1430.99,1697.87,1848.01,599.68,581.35,27.78,0000 0000 0000 0000 000000
2017-07-12 06:27:43,0.03,7.87,0.00,27.70,32.42,35.08,13.70,51.29,1007.84,2004.24,1431.01,1697.98,1848.12,599.77,581.52,27.83,0000 0000 0000 0000 000000
2017-07-12 06:32:45,0.05,7.87,0.00,27.65,32.38,35.03,13.69,51.37,1007.92,2004.80,1431.05,1697.99,1848.59,599.75,581.59,27.88,0000 0000 0000 0000 000000
2017-07-12 06:37:46,0.00,7.87,0.00,27.61,32.34,34.99,13.67,51.46,1008.10,2004.98,1431.10,1697.99,1848.94,600.02,581.98,27.93,0000 0000 0000 0000 000000
2017-07-12 06:42:47,-0.01,7.87,0.00,27.56,32.29,34.96,13.76,51.43,1008.31,2004.99,1431.21,1698.01,1848.98,600.33,582.48,27.98,0000 0000 0000 0000 000000
2017-07-12 06:47:48,-0.01,7.87,0.00,27.51,32.25,34.90,13.68,51.42,1008.32,2005.01,1431.34,1698.18,1848.99,600.05,582.32,28.03,0000 0000 0000 0000 000000
2017-07-12 06:52:50,-0.02,7.87,0.00,27.47,32.21,34.87,13.66,51.47,1008.36,2005.24,1431.55,1698.70,1849.01,599.81,582.23,28.08,0000 0000 0000 0000 000000
2017-07-12 06:57:51,0.05,7.87,0.00,27.42,32.16,34.83,13.70,51.33,1008.36,2005.72,1431.64,1698.96,1849.12,599.96,582.46,28.13,0000 0000 0000 0000 000000
2017-07-12 07:02:52,-0.01,7.87,0.00,27.38,32.12,34.79,13.75,51.51,1008.32,2005.97,1431.81,1698.99,1849.57,599.95,582.59,28.19,0000 0000 0000 0000 000000
2017-07-12 07:07:54,-0.01,7.87,0.00,27.34,32.08,34.77,13.75,51.42,1008.32,2005.99,1431.93,1698.99,1849.96,599.97,582.49,28.24,0000 0000 0000 0000 000000
2017-07-12 07:12:55,-0.00,7.87,0.00,27.29,32.03,34.71,13.73,51.52,1008.37,2006.02,1431.96,1699.02,1849.99,600.11,583.00,28.29,0000 0000 0000 0000 000000
2017-07-12 07:17:57,0.04,7.87,0.00,27.24,31.99,34.65,13.73,51.44,1008.73,2006.29,1431.98,1699.12,1849.99,599.92,582.96,28.34,0000 0000 0000 0000 000000
2017-07-12 07:22:58,0.03,7.87,0.00,27.19,31.94,34.61,13.68,51.43,1008.80,2006.83,1431.97,1699.59,1850.02,599.72,582.97,28.39,0000 0000 0000 0000 000000
2017-07-12 07:27:59,-0.01,7.87,0.00,27.14,31.90,34.58,13.71,51.26,1008.81,2006.97,1431.98,1699.91,1850.16,599.80,583.03,28.44,0000 0000 0000 0000 000000
2017-07-12 07:33:01,-0.02,7.87,0.00,27.11,31.86,34.54,13.71,51.30,1009.01,2006.99,1431.98,1699.98,1850.68,600.12,583.58,28.49,0000 0000 0000 0000 000000
2017-07-12 07:38:02,0.00,7.87,0.00,27.07,31.81,34.49,13.74,51.49,1009.29,2007.01,1431.98,1699.99,1850.94,599.92,583.62,28.54,0000 0000 0000 0000 000000
2017-07-12 07:43:03,0.03,7.87,0.00,27.03,31.77,34.46,13.77,51.49,1009.29,2007.23,1431.99,1700.00,1850.99,599.91,583.82,28.59,0000 0000 0000 0000 000000
2017-07-12 07:48:04,0.06,7.88,0.00,26.99,31.72,34.40,13.80,51.30,1009.56,2007.86,1431.99,1700.15,1851.00,600.14,584.05,28.64,0000 0000 0000 0000 000000
2017-07-12 07:53:05,-0.02,7.88,0.00,26.96,31.68,34.35,13.77,51.33,1009.79,2007.98,1431.99,1700.49,1851.05,599.88,584.06,28.69,0000 0000 0000 0000 000000
2017-07-12 07:58:06,-0.04,7.87,0.00,26.91,31.63,34.32,13.71,51.24,1009.89,2007.99,1431.99,1700.93,1851.47,600.02,584.50,28.74,0000 0000 0000 0000 000000
2017-07-12 08:03:08,-0.01,7.87,0.00,26.87,31.59,34.26,13.74,51.38,1010.21,2008.01,1431.99,1700.99,1851.94,600.07,584.76,28.79,0000 0000 0000 0000 000000
2017-07-12 08:08:09,0.02,7.87,0.00,26.84,31.55,34.22,13.74,51.55,1010.27,2008.14,1432.00,1700.99,1851.99,600.11,584.82,28.84,0000 0000 0000 0000 000000
2017-07-12 08:13:10,0.08,7.88,0.00,26.80,31.51,34.18,13.77,51.50,1010.28,2008.70,1432.00,1701.03,1851.99,600.10,584.95,28.89,0000 0000 0000 0000 000000
2017-07-12 08:18:12,0.01,7.88,0.00,26.76,31.46,34.14,13.67,51.35,1010.41,2008.97,1432.00,1701.15,1852.01,599.47,584.52,28.94,0000 0000 0000 0000 000000
2017-07-12 08:23:13,-0.05,7.88,0.00,26.74,31.42,34.12,13.76,51.44,1010.63,2008.99,1432.00,1701.76,1852.25,600.06,585.24,28.99,0000 0000 0000 0000 000000
2017-07-12 08:28:14,-0.02,7.88,0.00,26.70,31.38,34.06,13.79,51.50,1010.74,2009.00,1432.00,1701.97,1852.77,600.23,585.54,29.04,0000 0000 0000 0000 000000
2017-07-12 08:33:15,0.02,7.88,0.00,26.67,31.34,34.02,13.86,51.58,1010.77,2009.10,1432.00,1701.99,1852.97,600.24,585.57,29.09,0000 0000 0000 0000 000000
2017-07-12 08:38:16,0.09,7.88,0.00,26.64,31.30,33.99,13.77,51.29,1010.87,2009.65,1432.00,1702.00,1852.99,599.99,585.45,29.14,0000 0000 0000 0000 000000
2017-07-12 08:43:18,0.01,7.88,0.00,26.61,31.26,33.94,13.77,51.43,1011.07,2009.97,1432.00,1702.03,1853.01,600.04,585.70,29.19,0000 0000 0000 0000 000000
2017-07-12 08:48:19,-0.02,7.88,0.00,26.58,31.22,33.90,13.78,51.37,1011.13,2009.99,1432.00,1702.33,1853.09,599.91,585.68,29.24,0000 0000 0000 0000 000000
2017-07-12 08:53:21,-0.06,7.88,0.00,26.55,31.18,33.85,13.78,51.43,1011.24,2009.99,1432.00,1702.80,1853.61,599.94,585.86,29.29,0000 0000 0000 0000 000000
2017-07-12 08:58:22,-0.01,7.88,0.00,26.52,31.14,33.81,13.79,51.57,1011.25,2010.05,1432.01,1702.97,1853.94,600.14,585.99,29.34,0000 0000 0000 0000 000000
2017-07-12 09:03:24,0.04,7.88,0.00,26.51,31.11,33.77,13.79,51.53,1011.27,2010.23,1432.01,1702.99,1853.99,599.80,585.75,29.39,0000 0000 0000 0000 000000
2017-07-12 09:08:25,0.07,7.88,0.00,26.47,31.07,33.75,13.78,51.47,1011.44,2010.72,1432.01,1702.99,1853.99,599.70,585.83,29.44,0000 0000 0000 0000 000000
2017-07-12 09:13:26,0.01,7.88,0.00,26.45,31.03,33.70,13.83,51.55,1011.67,2010.95,1432.02,1703.01,1854.00,599.97,586.33,29.49,0000 0000 0000 0000 000000
2017-07-12 09:18:28,-0.00,7.88,0.00,26.42,31.00,33.65,13.77,51.56,1011.74,2010.99,1432.04,1703.12,1854.07,599.67,586.26,29.54,0000 0000 0000 0000 000000
2017-07-12 09:23:29,-0.08,7.88,0.00,26.40,30.96,33.63,13.82,51.49,1011.78,2010.99,1432.11,1703.74,1854.63,600.33,586.81,29.59,0000 0000 0000 0000 000000
2017-07-12 09:28:31,-0.00,7.88,0.00,26.38,30.92,33.59,13.79,51.48,1011.87,2011.04,1432.12,1703.97,1854.95,599.97,586.54,29.64,0000 0000 0000 0000 000000
2017-07-12 09:33:32,0.03,7.88,0.00,26.35,30.89,33.56,13.82,51.45,1012.15,2011.23,1432.21,1703.99,1854.99,599.71,586.53,29.69,0000 0000 0000 0000 000000
2017-07-12 09:38:33,0.05,7.88,0.00,26.33,30.86,33.53,13.77,51.62,1012.22,2011.82,1432.48,1703.99,1854.99,600.14,586.89,29.74,0000 0000 0000 0000 000000
2017-07-12 09:43:35,0.02,7.88,0.00,26.32,30.82,33.49,13.80,51.56,1012.22,2011.95,1432.54,1704.00,1854.99,599.87,586.57,29.79,0000 0000 0000 0000 000000
2017-07-12 09:48:36,0.01,7.88,0.00,26.29,30.79,33.46,13.77,51.54,1012.24,2011.98,1432.48,1704.03,1854.99,599.59,586.59,29.84,0000 0000 0000 0000 000000
2017-07-12 09:53:37,-0.00,7.88,0.00,26.26,30.76,33.44,13.90,51.61,1012.27,2011.99,1432.39,1704.07,1855.00,600.24,587.11,29.89,0000 0000 0000 0000 000000
2017-07-12 09:58:39,-0.03,7.88,0.00,26.24,30.72,33.37,13.83,51.58,1012.25,2011.99,1432.56,1704.46,1855.10,599.93,586.99,29.94,0000 0000 0000 0000 000000
2017-07-12 10:03:40,-0.04,7.88,0.00,26.22,30.69,33.35,13.82,51.46,1012.42,2012.01,1432.57,1704.84,1855.50,599.87,587.05,29.99,0000 0000 0000 0000 000000
2017-07-12 10:08:41,-0.01,7.88,0.00,26.21,30.66,33.33,13.77,51.53,1012.70,2012.06,1432.53,1704.95,1855.85,600.01,587.35,30.04,0000 0000 0000 0000 000000
2017-07-12 10:13:43,0.05,7.88,0.00,26.18,30.63,33.28,13.80,51.52,1012.71,2012.40,1432.66,1704.98,1855.98,599.73,587.18,30.09,0000 0000 0000 0000 000000
2017-07-12 10:18:44,0.04,7.88,0.00,26.16,30.60,33.20,13.88,51.65,1012.72,2012.84,1432.75,1704.99,1855.99,600.35,587.60,30.14,0000 0000 0000 0000 000000
2017-07-12 10:23:45,-0.00,7.88,0.00,26.13,30.56,33.18,13.88,51.59,1012.72,2012.97,1432.89,1705.00,1855.99,600.44,587.95,30.19,0000 0000 0000 0000 000000
2017-07-12 10:28:46,0.00,7.88,0.00,26.10,30.53,33.13,13.76,51.51,1012.73,2012.99,1432.92,1705.02,1855.99,600.02,587.60,30.24,0000 0000 0000 0000 000000
2017-07-12 10:33:47,-0.02,7.88,0.00,26.08,30.51,33.07,13.86,51.78,1012.76,2013.00,1432.98,1705.15,1856.02,600.23,587.97,30.29,0000 0000 0000 0000 000000
2017-07-12 10:38:49,-0.04,7.88,0.00,26.05,30.47,33.03,13.84,51.56,1012.82,2013.01,1432.97,1705.52,1856.24,599.96,587.75,30.34,0000 0000 0000 0000 000000
2017-07-12 10:43:50,-0.03,7.88,0.00,26.02,30.45,33.03,13.79,51.73,1012.78,2013.06,1432.99,1705.93,1856.80,600.10,587.92,30.39,0000 0000 0000 0000 000000
2017-07-12 10:48:51,0.03,7.88,0.00,26.00,30.41,33.00,13.81,51.69,1012.73,2013.33,1432.99,1705.98,1856.97,599.84,587.78,30.44,0000 0000 0000 0000 000000
2017-07-12 10:53:52,0.07,7.88,0.00,25.97,30.39,32.96,13.88,51.73,1012.73,2013.84,1432.99,1705.99,1856.99,600.05,587.81,30.49,0000 0000 0000 0000 000000
2017-07-12 10:58:54,0.01,7.89,0.00,25.94,30.36,32.92,13.80,51.63,1012.72,2013.97,1432.99,1705.99,1856.99,600.07,587.75,30.54,0000 0000 0000 0000 000000
2017-07-12 11:03:55,0.00,7.89,0.00,25.91,30.32,32.89,13.79,51.70,1012.74,2013.99,1432.99,1705.99,1856.99,599.94,587.90,30.59,0000 0000 0000 0000 000000
2017-07-12 11:08:57,-0.00,7.89,0.00,25.88,30.29,32.85,13.83,51.58,1012.96,2013.99,1432.99,1706.01,1857.01,599.85,588.00,30.64,0000 0000 0000 0000 000000
2017-07-12 11:13:58,-0.00,7.89,0.00,25.85,30.26,32.81,13.89,51.60,1012.93,2014.00,1432.99,1706.08,1857.06,599.80,588.10,30.69,0000 0000 0000 0000 000000
2017-07-12 11:18:59,-0.02,7.88,0.00,25.82,30.24,32.79,13.83,51.71,1012.92,2014.01,1432.99,1706.26,1857.30,600.14,588.41,30.74,0000 0000 0000 0000 000000
2017-07-12 11:24:00,-0.04,7.88,0.00,25.80,30.21,32.77,13.81,51.65,1013.04,2014.06,1432.99,1706.74,1857.70,599.75,588.16,30.79,0000 0000 0000 0000 000000
2017-07-12 11:29:02,0.05,7.88,0.00,25.78,30.18,32.74,13.87,51.73,1013.19,2014.50,1432.99,1706.94,1857.95,600.54,588.97,30.84,0000 0000 0000 0000 000000
2017-07-12 11:34:03,0.02,7.89,0.00,25.74,30.15,32.72,13.88,51.68,1013.20,2014.84,1433.00,1706.98,1857.99,600.11,588.72,30.89,0000 0000 0000 0000 000000
2017-07-12 11:39:04,0.01,7.89,0.00,25.72,30.11,32.68,13.75,51.62,1013.20,2014.95,1433.01,1706.99,1857.99,599.80,588.38,30.94,0000 0000 0000 0000 000000
2017-07-12 11:44:06,0.00,7.89,0.00,25.68,30.09,32.65,13.82,51.79,1013.19,2014.98,1433.04,1706.99,1857.99,599.90,588.64,30.99,0000 0000 0000 0000 000000
2017-07-12 11:49:07,-0.01,7.89,0.00,25.66,30.06,32.62,13.87,51.78,1013.19,2014.99,1433.10,1707.01,1858.03,599.89,588.57,31.04,0000 0000 0000 0000 000000
2017-07-12 11:54:08,-0.01,7.89,0.00,25.62,30.03,32.60,13.83,51.78,1013.12,2015.02,1433.22,1707.04,1858.08,600.11,588.80,31.09,0000 0000 0000 0000 000000
2017-07-12 11:59:10,-0.03,7.89,0.00,25.58,30.00,32.58,13.81,51.77,1013.18,2015.09,1433.40,1707.19,1858.23,599.91,588.84,31.14,0000 0000 0000 0000 000000
2017-07-12 12:04:11,0.00,7.88,0.00,25.56,29.97,32.55,13.86,51.95,1013.21,2015.25,1433.51,1707.41,1858.59,600.14,589.09,31.19,0000 0000 0000 0000 000000
2017-07-12 12:09:12,0.01,7.88,0.00,25.52,29.94,32.52,13.86,51.84,1013.22,2015.57,1433.74,1707.79,1858.87,599.88,589.04,31.24,0000 0000 0000 0000 000000
2017-07-12 12:14:13,0.00,7.89,0.00,25.49,29.91,32.49,13.87,51.82,1013.22,2015.93,1433.92,1707.96,1858.97,600.10,589.14,31.29,0000 0000 0000 0000 000000
2017-07-12 12:19:15,0.00,7.89,0.00,25.47,29.88,32.46,13.88,51.86,1013.50,2015.98,1433.98,1707.98,1858.99,600.05,589.48,31.34,0000 0000 0000 0000 000000
2017-07-12 12:24:16,0.00,7.89,0.00,25.44,29.85,32.46,13.92,52.16,1013.43,2015.99,1433.98,1707.99,1858.99,600.20,589.37,31.39,0000 0000 0000 0000 000000
2017-07-12 12:29:17,0.00,7.89,0.00,25.40,29.82,32.42,13.96,52.17,1013.40,2015.99,1433.99,1707.99,1858.99,600.18,589.46,31.44,0000 0000 0000 0000 000000
2017-07-12 12:34:18,0.00,7.89,0.00,25.36,29.79,32.39,13.87,52.14,1013.45,2015.99,1433.99,1708.00,1859.01,600.26,589.67,31.50,0000 0000 0000 0000 000000
2017-07-12 12:39:20,-0.00,7.89,0.00,25.34,29.76,32.40,13.93,52.07,1013.61,2016.01,1433.99,1708.00,1859.10,600.16,589.75,31.55,0000 0000 0000 0000 000000
2017-07-12 12:44:21,-0.00,7.88,0.00,25.31,29.73,32.38,13.84,51.90,1013.69,2016.12,1433.99,1708.13,1859.49,599.74,589.53,31.60,0000 0000 0000 0000 000000
2017-07-12 12:49:23,0.02,7.88,0.00,25.28,29.70,32.31,13.88,52.17,1013.72,2016.63,1434.00,1708.75,1859.90,600.01,589.67,31.65,0000 0000 0000 0000 000000